�N����,����,�g�[���i���ԁj���x,�g�[�����x,��g�[���i���ցj���x,����
 2005/01/01, 0:00,16.2,52,11.2,14.1
 2005/01/01, 0:15,16.2,52,11.4,14.2
 2005/01/01, 0:30,16.2,52,11.2,14.3
 2005/01/01, 0:45,15.9,51,11.1,13.9
 2005/01/01, 1:00,15.5,53,11,14
 2005/01/01, 1:15,15.2,53,10.9,14
 2005/01/01, 1:30,14.9,53,10.6,14.1
 2005/01/01, 1:45,14.6,52,10.5,14.1
 2005/01/01, 2:00,14.4,52,10.4,14.1
 2005/01/01, 2:15,14.2,51,10.2,14.1
 2005/01/01, 2:30,14,51,10.1,14.1
 2005/01/01, 2:45,13.8,52,10,14.1
 2005/01/01, 3:00,13.5,53,10.1,14.1
 2005/01/01, 3:15,13.4,53,10,14.1
 2005/01/01, 3:30,13.2,53,10,14.1
 2005/01/01, 3:45,13.1,54,10,14.1
 2005/01/01, 4:00,13,54,9.9,14.1
 2005/01/01, 4:15,12.9,54,9.8,14.1
 2005/01/01, 4:30,12.7,54,9.8,14.1
 2005/01/01, 4:45,12.7,54,9.8,14.1
 2005/01/01, 5:00,12.5,54,9.8,14
 2005/01/01, 5:15,12.3,55,9.8,14
 2005/01/01, 5:30,12.3,55,9.7,14
 2005/01/01, 5:45,12.2,55,9.7,14
 2005/01/01, 6:00,12.2,55,9.7,14
 2005/01/01, 6:15,12,55,9.6,14
 2005/01/01, 6:30,12,55,9.5,14
 2005/01/01, 6:45,12,55,9.5,14
 2005/01/01, 7:00,11.8,55,9.5,13.9
 2005/01/01, 7:15,12,56,9.5,13.9
 2005/01/01, 7:30,12.5,61,9.4,13.9
 2005/01/01, 7:45,13,60,9.4,13.9
 2005/01/01, 8:00,14,58,9.4,13.9
 2005/01/01, 8:15,15,56,9.5,13.9
 2005/01/01, 8:30,15.5,53,9.9,13.8
 2005/01/01, 8:45,14.8,53,9.9,13.7
 2005/01/01, 9:00,14.9,52,10.6,13.7
 2005/01/01, 9:15,15.2,53,10.7,13.5
 2005/01/01, 9:30,15.4,48,11.6,13.7
 2005/01/01, 9:45,15.2,50,12,13.7
 2005/01/01,10:00,15.2,49,12.3,13.8
 2005/01/01,10:15,14.8,50,12.4,13.8
 2005/01/01,10:30,14.8,50,12.5,13.9
 2005/01/01,10:45,14.7,49,12.4,13.9
 2005/01/01,11:00,14.2,50,12.4,14
 2005/01/01,11:15,14,50,12.3,14
 2005/01/01,11:30,13.6,50,12,14.1
 2005/01/01,11:45,13.5,49,11.8,14.1
 2005/01/01,12:00,13.3,50,11.8,14.1
 2005/01/01,12:15,13.6,49,11.9,14.1
 2005/01/01,12:30,13.7,49,12,14.1
 2005/01/01,12:45,13.4,50,11.8,14.1
 2005/01/01,13:00,13.2,50,11.8,14.1
 2005/01/01,13:15,13,49,11.6,14.1
 2005/01/01,13:30,12.8,49,11.4,14.2
 2005/01/01,13:45,13.2,50,10.8,13.7
 2005/01/01,14:00,14.3,58,10.5,13.7
 2005/01/01,14:15,14.7,55,10.3,13.7
 2005/01/01,14:30,15.5,54,10.2,13.6
 2005/01/01,14:45,15.7,53,10.2,13.5
 2005/01/01,15:00,16,51,10,13.5
 2005/01/01,15:15,16.1,49,10,13.6
 2005/01/01,15:30,16.1,48,9.8,13.6
 2005/01/01,15:45,16,48,9.9,13.7
 2005/01/01,16:00,16.1,48,9.8,13.8
 2005/01/01,16:15,16.1,50,9.8,13.9
 2005/01/01,16:30,16.1,50,9.8,13.9
 2005/01/01,16:45,16.4,50,9.9,14
 2005/01/01,17:00,16.4,48,9.9,14.1
 2005/01/01,17:15,16.4,48,9.9,13.5
 2005/01/01,17:30,16.2,49,10,13.6
 2005/01/01,17:45,16.2,48,9.8,13.6
 2005/01/01,18:00,16.3,49,9.8,13.6
 2005/01/01,18:15,16.4,49,9.8,13.4
 2005/01/01,18:30,16.4,51,9.8,13.4
 2005/01/01,18:45,16.4,52,9.7,13.5
 2005/01/01,19:00,15.8,44,10,13.5
 2005/01/01,19:15,16.1,52,10.2,13.7
 2005/01/01,19:30,16.4,52,9.9,13.8
 2005/01/01,19:45,16.8,52,9.7,13.9
 2005/01/01,20:00,16.7,53,9.8,13.9
 2005/01/01,20:15,16.7,53,9.8,13.6
 2005/01/01,20:30,16.9,52,9.7,13.7
 2005/01/01,20:45,16.7,52,9.6,13.8
 2005/01/01,21:00,16.7,52,9.5,13.8
 2005/01/01,21:15,16.5,51,9.5,13.9
 2005/01/01,21:30,16.3,51,9.5,13.9
 2005/01/01,21:45,16.3,53,9.4,13.9
 2005/01/01,22:00,16.5,53,9.5,14
 2005/01/01,22:15,16.4,49,9.5,14
 2005/01/01,22:30,16.4,53,9.5,14
 2005/01/01,22:45,16.1,53,9.5,13.7
 2005/01/01,23:00,16.1,53,9.5,13.6
 2005/01/01,23:15,16,54,9.5,13.7
 2005/01/01,23:30,16,54,9.6,13.7
 2005/01/01,23:45,16,54,9.7,13.8
 2005/01/02, 0:00,15.7,55,9.6,13.7
 2005/01/02, 0:15,15.6,55,9.6,13.7
 2005/01/02, 0:30,15.4,56,9.5,13.7
 2005/01/02, 0:45,15.1,56,9.5,13.8
 2005/01/02, 1:00,15,55,9.4,13.8
 2005/01/02, 1:15,14.8,56,9.5,13.9
 2005/01/02, 1:30,14.7,55,9.5,13.9
 2005/01/02, 1:45,14.5,55,9.5,13.9
 2005/01/02, 2:00,14.1,55,9.5,13.9
 2005/01/02, 2:15,14,55,9.5,13.9
 2005/01/02, 2:30,13.6,56,9.5,13.9
 2005/01/02, 2:45,13.3,56,9.5,13.9
 2005/01/02, 3:00,13.2,56,9.4,13.9
 2005/01/02, 3:15,12.9,56,9.4,13.9
 2005/01/02, 3:30,12.7,56,9.3,13.9
 2005/01/02, 3:45,12.7,57,9.2,13.9
 2005/01/02, 4:00,12.4,57,9.2,13.9
 2005/01/02, 4:15,12.3,57,9.2,13.9
 2005/01/02, 4:30,12.2,57,9.1,13.9
 2005/01/02, 4:45,12,56,9.1,13.9
 2005/01/02, 5:00,11.8,56,9.1,13.9
 2005/01/02, 5:15,11.7,56,9,13.8
 2005/01/02, 5:30,11.4,56,9,13.8
 2005/01/02, 5:45,11.3,57,9,13.8
 2005/01/02, 6:00,11.2,56,8.9,13.8
 2005/01/02, 6:15,11,57,8.9,13.7
 2005/01/02, 6:30,10.8,57,8.9,13.7
 2005/01/02, 6:45,10.8,57,8.9,13.7
 2005/01/02, 7:00,10.8,57,8.8,13.7
 2005/01/02, 7:15,10.7,57,8.7,13.1
 2005/01/02, 7:30,11.3,57,8.6,12.6
 2005/01/02, 7:45,12.4,56,8.6,13
 2005/01/02, 8:00,13.9,53,8.5,13
 2005/01/02, 8:15,14.2,53,8.5,12.9
 2005/01/02, 8:30,15.3,50,8.6,13
 2005/01/02, 8:45,16,47,8.5,13
 2005/01/02, 9:00,16.6,47,8.8,13
 2005/01/02, 9:15,17.3,48,9.2,13
 2005/01/02, 9:30,17.8,47,9.4,13
 2005/01/02, 9:45,17.8,47,10,13
 2005/01/02,10:00,18.2,49,9.6,13.1
 2005/01/02,10:15,18.2,50,9.5,13.2
 2005/01/02,10:30,18.4,46,9.5,13.2
 2005/01/02,10:45,18.5,48,9.3,13.3
 2005/01/02,11:00,18.8,48,9.3,13.3
 2005/01/02,11:15,19,47,9.2,12.9
 2005/01/02,11:30,19.1,46,9.2,12.9
 2005/01/02,11:45,19.2,46,9.3,13
 2005/01/02,12:00,18.8,48,9.2,13.1
 2005/01/02,12:15,19,43,9.2,13.2
 2005/01/02,12:30,19.2,41,9.2,13.2
 2005/01/02,12:45,18.8,40,9.2,13.3
 2005/01/02,13:00,18.7,42,9.3,13.3
 2005/01/02,13:15,18.6,45,9.3,13.4
 2005/01/02,13:30,18.2,44,9.7,12.8
 2005/01/02,13:45,18.5,45,10,12.9
 2005/01/02,14:00,18.7,46,10,13
 2005/01/02,14:15,18.5,46,10,13.1
 2005/01/02,14:30,18.2,45,10,13.2
 2005/01/02,14:45,17.4,45,10.8,13.3
 2005/01/02,15:00,17.1,46,10.9,13.4
 2005/01/02,15:15,16.7,46,11.1,13.5
 2005/01/02,15:30,16.4,46,11,13.6
 2005/01/02,15:45,16.2,46,11.1,13.7
 2005/01/02,16:00,16.5,47,11,13.9
 2005/01/02,16:15,16.3,46,11.4,13.9
 2005/01/02,16:30,16.5,47,11.2,14
 2005/01/02,16:45,16.6,47,11.1,14.1
 2005/01/02,17:00,16.7,48,11.1,14.2
 2005/01/02,17:15,16.7,48,10.9,14.2
 2005/01/02,17:30,16.9,49,11,13.9
 2005/01/02,17:45,17,50,11.1,13.9
 2005/01/02,18:00,16.9,48,11,14
 2005/01/02,18:15,16.8,46,10.8,14.1
 2005/01/02,18:30,17,46,10.9,14.1
 2005/01/02,18:45,17.1,44,10.8,14
 2005/01/02,19:00,16.9,43,10.7,14.1
 2005/01/02,19:15,16.9,43,10.9,13.7
 2005/01/02,19:30,17.1,47,10.9,13.8
 2005/01/02,19:45,17.3,45,10.8,13.9
 2005/01/02,20:00,17.3,44,11,14.1
 2005/01/02,20:15,17.2,44,10.9,13.7
 2005/01/02,20:30,17.3,43,10.9,13.6
 2005/01/02,20:45,17.2,43,10.9,13.7
 2005/01/02,21:00,17.2,43,10.9,13.9
 2005/01/02,21:15,17.1,43,11,14
 2005/01/02,21:30,17.1,43,11.1,13.5
 2005/01/02,21:45,16.9,43,11.1,13.6
 2005/01/02,22:00,17.5,43,11.1,13.7
 2005/01/02,22:15,17.2,43,11.1,13.5
 2005/01/02,22:30,17.3,44,11.1,13.6
 2005/01/02,22:45,17.2,43,11.4,13.6
 2005/01/02,23:00,17.6,48,11.4,13.7
 2005/01/02,23:15,17.2,48,11.6,13.8
 2005/01/02,23:30,17,48,11.5,13.6
 2005/01/02,23:45,16.7,48,11.4,13.8
 2005/01/03, 0:00,16.1,49,11.5,13.9
 2005/01/03, 0:15,15.8,49,11.3,14
 2005/01/03, 0:30,15.7,50,11.4,14.1
 2005/01/03, 0:45,15.4,51,11.4,14.2
 2005/01/03, 1:00,15.2,51,11.3,14.2
 2005/01/03, 1:15,15,51,11.2,14.3
 2005/01/03, 1:30,14.8,51,11.2,14.3
 2005/01/03, 1:45,14.6,51,11.1,14.3
 2005/01/03, 2:00,14.6,52,11.1,14.3
 2005/01/03, 2:15,14.5,53,11,14.4
 2005/01/03, 2:30,14.2,53,10.9,14.4
 2005/01/03, 2:45,14,53,10.9,14.4
 2005/01/03, 3:00,13.9,53,10.9,14.4
 2005/01/03, 3:15,13.7,53,10.8,14.4
 2005/01/03, 3:30,13.6,54,10.7,14.4
 2005/01/03, 3:45,13.5,53,10.7,14.4
 2005/01/03, 4:00,13.3,54,10.6,14.4
 2005/01/03, 4:15,13.3,54,10.5,14.4
 2005/01/03, 4:30,13.1,53,10.4,14.4
 2005/01/03, 4:45,13,54,10.4,14.4
 2005/01/03, 5:00,12.9,54,10.4,14.4
 2005/01/03, 5:15,12.9,54,10.3,14.4
 2005/01/03, 5:30,12.6,54,10.3,14.4
 2005/01/03, 5:45,12.5,54,10.3,14.4
 2005/01/03, 6:00,12.4,54,10.2,14.4
 2005/01/03, 6:15,12.2,53,10.2,14.4
 2005/01/03, 6:30,12.1,53,10.2,14.4
 2005/01/03, 6:45,12.1,54,10.1,14.4
 2005/01/03, 7:00,12,53,10,14.4
 2005/01/03, 7:15,11.8,54,10,14.4
 2005/01/03, 7:30,12,53,10,14.3
 2005/01/03, 7:45,12.6,52,10.1,13.2
 2005/01/03, 8:00,13.9,53,10.7,13.1
 2005/01/03, 8:15,15.4,51,10.7,13.1
 2005/01/03, 8:30,16.8,48,10.9,13.2
 2005/01/03, 8:45,18.2,44,11,13.1
 2005/01/03, 9:00,19,41,11.1,13
 2005/01/03, 9:15,19.3,39,11.2,13
 2005/01/03, 9:30,19.7,39,11.3,13.1
 2005/01/03, 9:45,20.1,41,11.5,13.2
 2005/01/03,10:00,18.9,40,12.3,13.3
 2005/01/03,10:15,18.4,39,13,13.4
 2005/01/03,10:30,17.7,42,13.2,13.5
 2005/01/03,10:45,18.1,44,13.8,13.6
 2005/01/03,11:00,18.4,44,14.4,13.7
 2005/01/03,11:15,18.5,44,13.7,13.5
 2005/01/03,11:30,18.5,46,13.2,13.7
 2005/01/03,11:45,18.4,46,12.9,13.8
 2005/01/03,12:00,18.4,45,13.3,13.4
 2005/01/03,12:15,18.3,45,13.3,13.6
 2005/01/03,12:30,18.2,45,13.2,13.7
 2005/01/03,12:45,18.3,44,13.2,13.5
 2005/01/03,13:00,18.6,49,13.6,13.7
 2005/01/03,13:15,18.8,49,13.3,13.8
 2005/01/03,13:30,18.8,48,13.3,14
 2005/01/03,13:45,18.9,49,13.1,13.9
 2005/01/03,14:00,18.4,50,13,14.1
 2005/01/03,14:15,18.5,50,13,14.3
 2005/01/03,14:30,18.2,49,12.8,14.4
 2005/01/03,14:45,18.2,47,12.9,14.1
 2005/01/03,15:00,18,47,12.9,14.1
 2005/01/03,15:15,18,49,12.8,14.2
 2005/01/03,15:30,17.9,48,12.9,14.4
 2005/01/03,15:45,17.7,48,12.8,14.5
 2005/01/03,16:00,17.5,49,12.7,14.6
 2005/01/03,16:15,17.4,49,12.7,14.7
 2005/01/03,16:30,17.1,49,12.6,14.8
 2005/01/03,16:45,17.1,50,12.5,14.3
 2005/01/03,17:00,17.2,50,12.5,14.4
 2005/01/03,17:15,17.2,51,12.6,14.5
 2005/01/03,17:30,17.2,50,12.6,14.6
 2005/01/03,17:45,17.1,50,12.5,14.6
 2005/01/03,18:00,16.9,50,12.5,14.7
 2005/01/03,18:15,16.9,53,12.5,14.1
 2005/01/03,18:30,16.9,52,12.6,14.2
 2005/01/03,18:45,17.1,52,12.5,13.9
 2005/01/03,19:00,17.2,51,12.4,13.8
 2005/01/03,19:15,17.6,50,12.3,13.9
 2005/01/03,19:30,17.8,48,12.2,14.1
 2005/01/03,19:45,18,48,12,14.3
 2005/01/03,20:00,18,48,12.2,14.4
 2005/01/03,20:15,18,49,12.3,14.5
 2005/01/03,20:30,17.8,48,12.5,14.6
 2005/01/03,20:45,18,49,12.5,14.3
 2005/01/03,21:00,18.1,50,12.4,14.1
 2005/01/03,21:15,18.1,49,12.4,14.3
 2005/01/03,21:30,18.2,50,12.5,14.4
 2005/01/03,21:45,18.7,51,12.5,14.5
 2005/01/03,22:00,18.4,49,12.9,14.1
 2005/01/03,22:15,18.3,49,13.2,14.2
 2005/01/03,22:30,18.4,50,13.4,14.4
 2005/01/03,22:45,18.3,51,13.2,14.5
 2005/01/03,23:00,18.2,51,13.4,14.2
 2005/01/03,23:15,18.1,52,13.3,14.2
 2005/01/03,23:30,18,52,13.7,14.4
 2005/01/03,23:45,17.7,52,13.7,14.1
 2005/01/04, 0:00,17.4,52,13.5,14.3
 2005/01/04, 0:15,17.5,54,13.4,14.4
 2005/01/04, 0:30,17.3,54,13.5,14.5
 2005/01/04, 0:45,17.2,53,13.5,14.6
 2005/01/04, 1:00,17,53,13.4,14.7
 2005/01/04, 1:15,16.9,53,13.3,14.8
 2005/01/04, 1:30,16.8,53,13.2,14.8
 2005/01/04, 1:45,16.6,53,13.1,14.9
 2005/01/04, 2:00,16.4,53,13.2,14.9
 2005/01/04, 2:15,16.5,54,13.2,15
 2005/01/04, 2:30,16.4,54,13.1,15
 2005/01/04, 2:45,16,54,13,15.1
 2005/01/04, 3:00,16,54,12.9,15.1
 2005/01/04, 3:15,15.8,55,12.9,15.2
 2005/01/04, 3:30,15.9,55,12.9,15.2
 2005/01/04, 3:45,15.7,55,12.8,15.3
 2005/01/04, 4:00,15.6,55,12.8,15.3
 2005/01/04, 4:15,15.4,55,12.8,15.3
 2005/01/04, 4:30,15.3,55,12.7,15.3
 2005/01/04, 4:45,15.2,55,12.7,15.3
 2005/01/04, 5:00,15.2,55,12.7,15.4
 2005/01/04, 5:15,15.2,55,12.6,15.4
 2005/01/04, 5:30,15.1,55,12.6,15.4
 2005/01/04, 5:45,15.1,55,12.5,15.4
 2005/01/04, 6:00,15,55,12.5,15.4
 2005/01/04, 6:15,15,56,12.5,15.5
 2005/01/04, 6:30,14.9,59,12.5,15.5
 2005/01/04, 6:45,14.8,60,12.4,15.5
 2005/01/04, 7:00,14.8,60,12.4,15.1
 2005/01/04, 7:15,15.3,61,12.4,14.5
 2005/01/04, 7:30,15.7,62,12.3,14.3
 2005/01/04, 7:45,16.4,61,12.3,14.4
 2005/01/04, 8:00,16.6,60,12.4,14.1
 2005/01/04, 8:15,16.8,59,13.2,13.8
 2005/01/04, 8:30,17.1,58,13.3,13.8
 2005/01/04, 8:45,16.8,57,13.3,14
 2005/01/04, 9:00,17.5,55,13,14.2
 2005/01/04, 9:15,17.3,54,12.8,14.3
 2005/01/04, 9:30,18.2,52,12.8,14.5
 2005/01/04, 9:45,18.6,51,12.9,14.5
 2005/01/04,10:00,18,51,12.8,14.6
 2005/01/04,10:15,17.6,52,12.7,14.7
 2005/01/04,10:30,17.7,52,12.7,14.8
 2005/01/04,10:45,18.2,51,12.6,14.8
 2005/01/04,11:00,18.4,51,12.6,14.9
 2005/01/04,11:15,18.5,50,12.6,14.9
 2005/01/04,11:30,18.8,49,12.5,15
 2005/01/04,11:45,19,49,12.5,15
 2005/01/04,12:00,18.8,49,12.5,15.1
 2005/01/04,12:15,18.5,48,12.5,15.2
 2005/01/04,12:30,18.2,48,12.5,15.2
 2005/01/04,12:45,17.8,49,12.5,15.3
 2005/01/04,13:00,17.6,48,12.8,15.3
 2005/01/04,13:15,17.3,49,12.7,15.4
 2005/01/04,13:30,17.2,50,12.5,15.4
 2005/01/04,13:45,17.1,49,12.6,15.4
 2005/01/04,14:00,16.5,49,13.7,14.8
 2005/01/04,14:15,16.3,50,13.7,14.9
 2005/01/04,14:30,16.1,50,13.7,14.9
 2005/01/04,14:45,16,50,13.7,15
 2005/01/04,15:00,15.8,49,13.5,15
 2005/01/04,15:15,15.8,49,13.3,15.1
 2005/01/04,15:30,16.3,49,12.8,15.1
 2005/01/04,15:45,16.7,48,12.7,15.2
 2005/01/04,16:00,16.9,48,12.7,15.2
 2005/01/04,16:15,17.3,47,12.5,15.3
 2005/01/04,16:30,17.5,47,12.3,15.3
 2005/01/04,16:45,17.6,46,12.3,15.3
 2005/01/04,17:00,17.7,46,12.2,15.4
 2005/01/04,17:15,17.8,46,12.2,15.4
 2005/01/04,17:30,18,46,12.1,15.5
 2005/01/04,17:45,18,45,12.2,15.5
 2005/01/04,18:00,18,44,12.2,14.8
 2005/01/04,18:15,17.7,46,12.2,14.6
 2005/01/04,18:30,17.6,46,12.1,14.7
 2005/01/04,18:45,17.8,45,12,14.8
 2005/01/04,19:00,17.4,44,12.2,14.3
 2005/01/04,19:15,17.5,43,12.1,14.3
 2005/01/04,19:30,17.4,43,12.2,14.4
 2005/01/04,19:45,17.6,46,12.1,14.6
 2005/01/04,20:00,18,49,12.3,14.7
 2005/01/04,20:15,18.4,49,12.5,14.8
 2005/01/04,20:30,18.6,50,12.4,14.8
 2005/01/04,20:45,18.8,50,12.5,14.9
 2005/01/04,21:00,18.8,51,12.6,14.5
 2005/01/04,21:15,18.8,52,12.7,14.4
 2005/01/04,21:30,18.6,51,12.7,14.6
 2005/01/04,21:45,19,50,12.8,14.4
 2005/01/04,22:00,18.8,48,12.7,14.6
 2005/01/04,22:15,18.7,49,12.5,14.7
 2005/01/04,22:30,18.5,49,12.7,14.3
 2005/01/04,22:45,18.4,49,12.6,14.5
 2005/01/04,23:00,18.3,49,12.7,14.6
 2005/01/04,23:15,18.2,50,12.7,14.7
 2005/01/04,23:30,18.1,49,12.8,14.3
 2005/01/04,23:45,17.9,49,12.8,14.5
 2005/01/05, 0:00,17.8,50,12.9,14.1
 2005/01/05, 0:15,17.4,51,12.9,14.3
 2005/01/05, 0:30,17.1,52,12.8,14.4
 2005/01/05, 0:45,17.1,53,12.8,14.5
 2005/01/05, 1:00,16.9,53,12.7,14.6
 2005/01/05, 1:15,16.5,52,12.7,14.7
 2005/01/05, 1:30,16.4,52,12.7,14.7
 2005/01/05, 1:45,16.3,53,12.5,14.8
 2005/01/05, 2:00,16.2,53,12.5,14.8
 2005/01/05, 2:15,16,53,12.4,14.9
 2005/01/05, 2:30,15.8,53,12.3,14.9
 2005/01/05, 2:45,15.5,53,12.3,14.9
 2005/01/05, 3:00,15.4,53,12.2,14.9
 2005/01/05, 3:15,15.1,53,12.1,14.9
 2005/01/05, 3:30,15,53,12,14.9
 2005/01/05, 3:45,14.8,53,11.9,14.9
 2005/01/05, 4:00,14.7,53,11.8,14.9
 2005/01/05, 4:15,14.5,53,11.8,15
 2005/01/05, 4:30,14.4,53,11.6,15
 2005/01/05, 4:45,14.3,53,11.6,14.9
 2005/01/05, 5:00,14.1,53,11.5,15
 2005/01/05, 5:15,14.1,53,11.4,15
 2005/01/05, 5:30,14,53,11.4,14.9
 2005/01/05, 5:45,13.8,53,11.3,14.9
 2005/01/05, 6:00,13.6,53,11.1,14.9
 2005/01/05, 6:15,13.5,53,11.1,14.9
 2005/01/05, 6:30,13.5,57,11,14.9
 2005/01/05, 6:45,13.3,57,10.9,14.9
 2005/01/05, 7:00,13.4,55,10.9,14
 2005/01/05, 7:15,13.8,55,10.7,13.8
 2005/01/05, 7:30,14,54,10.7,13.4
 2005/01/05, 7:45,15,53,10.7,13.5
 2005/01/05, 8:00,16.3,50,10.7,13.5
 2005/01/05, 8:15,17.8,45,10.9,13.5
 2005/01/05, 8:30,18.9,44,11.3,13.4
 2005/01/05, 8:45,20,41,12,13.5
 2005/01/05, 9:00,18.1,45,12.2,13.4
 2005/01/05, 9:15,17.3,46,12.2,13.5
 2005/01/05, 9:30,16.9,48,12.7,13.1
 2005/01/05, 9:45,16.6,51,12.8,13.3
 2005/01/05,10:00,17.8,52,12.8,13.4
 2005/01/05,10:15,18.4,52,13.5,13.5
 2005/01/05,10:30,17.5,54,13.3,13.3
 2005/01/05,10:45,17.2,53,13.5,13.2
 2005/01/05,11:00,17.7,55,13.1,13.4
 2005/01/05,11:15,17.9,54,12.9,13.5
 2005/01/05,11:30,17.8,55,12.8,13.7
 2005/01/05,11:45,17.3,53,12.7,13.8
 2005/01/05,12:00,16.8,54,12.6,13.9
 2005/01/05,12:15,16.5,54,12.5,13.9
 2005/01/05,12:30,16.4,54,12.5,14
 2005/01/05,12:45,16.5,54,12.4,14.1
 2005/01/05,13:00,16.4,54,12.3,14.1
 2005/01/05,13:15,16.7,54,12.3,14.1
 2005/01/05,13:30,16.8,54,12.2,14.2
 2005/01/05,13:45,16.5,52,12.2,14.2
 2005/01/05,14:00,16.3,53,12.2,14.3
 2005/01/05,14:15,16.1,53,12.2,14.3
 2005/01/05,14:30,16,54,12.2,14.3
 2005/01/05,14:45,15.8,54,12.2,14.4
 2005/01/05,15:00,15.6,54,12.1,14.4
 2005/01/05,15:15,16.1,55,12.2,13.3
 2005/01/05,15:30,15.9,54,12.1,13.5
 2005/01/05,15:45,15.7,54,12.1,13.6
 2005/01/05,16:00,15.7,54,12,13.7
 2005/01/05,16:15,15.6,54,12,13.7
 2005/01/05,16:30,15.8,54,12,13.8
 2005/01/05,16:45,15.4,54,12,13.9
 2005/01/05,17:00,15.1,54,12,13.9
 2005/01/05,17:15,14.8,55,11.9,14
 2005/01/05,17:30,14.9,54,11.8,14
 2005/01/05,17:45,15.3,53,11.8,14
 2005/01/05,18:00,15.7,55,11.6,14.1
 2005/01/05,18:15,15.9,55,12.1,14
 2005/01/05,18:30,16.4,55,12.2,13.7
 2005/01/05,18:45,16.4,58,12.2,13.9
 2005/01/05,19:00,16.3,54,12.3,14
 2005/01/05,19:15,16.4,58,12.4,14.1
 2005/01/05,19:30,16.5,53,12.2,14.1
 2005/01/05,19:45,16.5,50,12,14.2
 2005/01/05,20:00,16.7,48,12,13.7
 2005/01/05,20:15,16.9,51,12.2,13.3
 2005/01/05,20:30,17.1,51,12.3,13.5
 2005/01/05,20:45,17,51,12.3,13.7
 2005/01/05,21:00,17.1,52,12.5,13.4
 2005/01/05,21:15,17.1,53,12.6,13.6
 2005/01/05,21:30,17.2,54,12.6,13.7
 2005/01/05,21:45,17.3,54,12.9,13.8
 2005/01/05,22:00,17.8,53,13.6,13.9
 2005/01/05,22:15,17.6,53,13.5,14
 2005/01/05,22:30,17.6,55,13.1,13.7
 2005/01/05,22:45,17.5,56,12.9,13.9
 2005/01/05,23:00,17.2,55,12.9,14
 2005/01/05,23:15,17.1,55,12.8,13.7
 2005/01/05,23:30,17.1,54,12.8,13.9
 2005/01/05,23:45,16.9,54,12.7,14
 2005/01/06, 0:00,16.9,56,12.7,14.1
 2005/01/06, 0:15,16.7,54,12.5,13.9
 2005/01/06, 0:30,16.4,55,12.5,14
 2005/01/06, 0:45,16.3,55,12.4,14.1
 2005/01/06, 1:00,16.2,55,12.3,14.2
 2005/01/06, 1:15,16,55,12.1,14.3
 2005/01/06, 1:30,15.9,55,12.2,14.3
 2005/01/06, 1:45,15.9,55,12.1,14.4
 2005/01/06, 2:00,15.6,55,12,14.4
 2005/01/06, 2:15,15.7,55,12,14.4
 2005/01/06, 2:30,16,55,11.9,14.5
 2005/01/06, 2:45,15.7,54,11.8,14.5
 2005/01/06, 3:00,15.4,55,11.8,14.5
 2005/01/06, 3:15,15.3,56,11.7,14.5
 2005/01/06, 3:30,15.2,56,11.6,14.6
 2005/01/06, 3:45,15.2,55,11.6,14.6
 2005/01/06, 4:00,15,56,11.5,14.6
 2005/01/06, 4:15,15,56,11.4,14.6
 2005/01/06, 4:30,14.8,56,11.4,14.6
 2005/01/06, 4:45,14.6,55,11.4,14.7
 2005/01/06, 5:00,14.2,55,11.3,14.7
 2005/01/06, 5:15,14,55,11.2,14.7
 2005/01/06, 5:30,13.8,56,11.1,14.7
 2005/01/06, 5:45,13.6,56,11.1,14.7
 2005/01/06, 6:00,13.5,56,10.9,14.7
 2005/01/06, 6:15,13.4,57,10.9,14.7
 2005/01/06, 6:30,13.3,57,10.8,14.7
 2005/01/06, 6:45,13,57,10.6,14.7
 2005/01/06, 7:00,13,57,10.7,13.5
 2005/01/06, 7:15,13.5,60,10.7,13.4
 2005/01/06, 7:30,13.6,60,10.7,13.2
 2005/01/06, 7:45,14.1,58,10.6,13.3
 2005/01/06, 8:00,14.6,55,10.5,13.4
 2005/01/06, 8:15,14.7,53,10.5,13.4
 2005/01/06, 8:30,15.1,55,10.7,13.3
 2005/01/06, 8:45,15.3,57,11.1,13.4
 2005/01/06, 9:00,15.1,55,12.2,13.5
 2005/01/06, 9:15,15,55,12.5,13.6
 2005/01/06, 9:30,15.2,55,12.5,13.7
 2005/01/06, 9:45,15.1,56,12.6,13.8
 2005/01/06,10:00,14.9,56,12.7,13.8
 2005/01/06,10:15,14.7,57,12.5,13.9
 2005/01/06,10:30,14.7,56,12.5,13.9
 2005/01/06,10:45,14.4,58,12.5,14
 2005/01/06,11:00,14.5,59,12.4,14
 2005/01/06,11:15,14.4,58,12.3,14.1
 2005/01/06,11:30,14.7,60,12.3,14.1
 2005/01/06,11:45,14.5,57,12.2,13.5
 2005/01/06,12:00,14.5,58,11.8,13.3
 2005/01/06,12:15,14.3,58,11.7,13.4
 2005/01/06,12:30,14.3,59,11.7,13.5
 2005/01/06,12:45,14.4,60,11.5,13.5
 2005/01/06,13:00,14.5,61,11.4,13.6
 2005/01/06,13:15,14.5,61,11.2,13.6
 2005/01/06,13:30,14.5,61,11.1,13.6
 2005/01/06,13:45,14.4,61,11.1,13.7
 2005/01/06,14:00,14.6,62,11.1,13.7
 2005/01/06,14:15,14.6,62,11,13.7
 2005/01/06,14:30,14.5,62,10.9,13.7
 2005/01/06,14:45,14.4,62,11,13.2
 2005/01/06,15:00,14.4,62,10.9,13.2
 2005/01/06,15:15,14.5,62,10.9,13.3
 2005/01/06,15:30,14.4,61,11,13.2
 2005/01/06,15:45,14.5,61,10.9,13.3
 2005/01/06,16:00,14.4,61,10.9,13.3
 2005/01/06,16:15,14.5,61,10.9,13.4
 2005/01/06,16:30,14.6,60,10.9,13.5
 2005/01/06,16:45,14.3,61,10.8,13.5
 2005/01/06,17:00,14.1,61,10.8,13.6
 2005/01/06,17:15,14.1,61,11.1,13.6
 2005/01/06,17:30,14.5,61,10.8,13.6
 2005/01/06,17:45,14.6,61,10.7,13.7
 2005/01/06,18:00,14.8,60,10.7,13.7
 2005/01/06,18:15,14.8,60,10.6,13.8
 2005/01/06,18:30,15,59,10.6,13.8
 2005/01/06,18:45,15,57,10.6,13.8
 2005/01/06,19:00,15,57,10.5,13.9
 2005/01/06,19:15,15,56,10.8,13.7
 2005/01/06,19:30,15.2,56,10.9,13.3
 2005/01/06,19:45,15.4,56,10.7,13.3
 2005/01/06,20:00,15.1,56,10.6,13.4
 2005/01/06,20:15,15.1,55,10.6,13.5
 2005/01/06,20:30,15.7,57,10.6,13.2
 2005/01/06,20:45,16.1,57,10.8,13.3
 2005/01/06,21:00,16.2,57,11.3,13.4
 2005/01/06,21:15,16.4,57,11.3,13.1
 2005/01/06,21:30,16.6,58,11.3,13.3
 2005/01/06,21:45,16.9,58,11.4,13.4
 2005/01/06,22:00,16.8,58,11.1,13.5
 2005/01/06,22:15,16.8,58,11.2,13.3
 2005/01/06,22:30,16.9,58,11.4,13.4
 2005/01/06,22:45,16.9,59,11.5,13.5
 2005/01/06,23:00,17.2,59,11.6,13.7
 2005/01/06,23:15,17,61,11.7,13.6
 2005/01/06,23:30,17,61,11.6,13.6
 2005/01/06,23:45,16.9,60,11.7,13.5
 2005/01/07, 0:00,16.9,60,11.8,13.6
 2005/01/07, 0:15,17,61,11.7,13.8
 2005/01/07, 0:30,16.9,61,11.6,13.9
 2005/01/07, 0:45,16.4,62,11.6,14
 2005/01/07, 1:00,16.1,62,11.6,14.1
 2005/01/07, 1:15,16,61,11.5,14.1
 2005/01/07, 1:30,15.7,61,11.5,14.2
 2005/01/07, 1:45,15.7,61,11.4,14.2
 2005/01/07, 2:00,15.5,62,11.4,14.3
 2005/01/07, 2:15,15.5,62,11.4,14.3
 2005/01/07, 2:30,15.2,62,11.3,13.7
 2005/01/07, 2:45,15.1,61,11.3,13.8
 2005/01/07, 3:00,14.7,62,11.2,13.9
 2005/01/07, 3:15,14.7,62,11.2,13.9
 2005/01/07, 3:30,14.5,62,11.1,14
 2005/01/07, 3:45,14.3,62,11.1,14
 2005/01/07, 4:00,14,62,11.1,14.1
 2005/01/07, 4:15,13.9,62,11.1,14.1
 2005/01/07, 4:30,13.7,62,11,14.1
 2005/01/07, 4:45,13.7,62,11,13.4
 2005/01/07, 5:00,13.5,63,10.9,13.5
 2005/01/07, 5:15,13.4,63,10.9,13.6
 2005/01/07, 5:30,13.2,63,10.9,13.6
 2005/01/07, 5:45,13.2,63,10.8,13.6
 2005/01/07, 6:00,13.1,63,10.8,13.7
 2005/01/07, 6:15,13,63,10.7,13.7
 2005/01/07, 6:30,13.1,70,10.7,13.7
 2005/01/07, 6:45,12.8,69,10.7,13.8
 2005/01/07, 7:00,13,67,10.7,13.5
 2005/01/07, 7:15,13.5,67,10.9,13.5
 2005/01/07, 7:30,14,66,11.1,13.5
 2005/01/07, 7:45,14.4,64,11.3,13.5
 2005/01/07, 8:00,14.6,62,11.3,13.6
 2005/01/07, 8:15,15,61,11.4,13.3
 2005/01/07, 8:30,15.4,62,11.7,13.3
 2005/01/07, 8:45,15.6,62,11.4,13.4
 2005/01/07, 9:00,15.5,62,11.1,13.5
 2005/01/07, 9:15,15.4,63,11.2,13.5
 2005/01/07, 9:30,15.1,63,11,13.6
 2005/01/07, 9:45,15.1,64,10.9,13.7
 2005/01/07,10:00,14.9,64,10.9,13.8
 2005/01/07,10:15,14.8,65,10.9,13.8
 2005/01/07,10:30,14.8,65,10.9,13.9
 2005/01/07,10:45,14.7,65,10.8,13.9
 2005/01/07,11:00,14.8,64,10.9,13.4
 2005/01/07,11:15,14.8,63,10.8,13.4
 2005/01/07,11:30,14.5,64,10.7,13.5
 2005/01/07,11:45,14.9,63,10.7,13.6
 2005/01/07,12:00,15.3,62,10.8,13.6
 2005/01/07,12:15,15.3,61,10.8,13.7
 2005/01/07,12:30,15,60,10.9,13.8
 2005/01/07,12:45,15.2,59,10.9,13.8
 2005/01/07,13:00,15.4,58,10.9,13.8
 2005/01/07,13:15,16,54,10.9,13.9
 2005/01/07,13:30,16.2,55,11,13.9
 2005/01/07,13:45,15.7,56,11,14
 2005/01/07,14:00,15.4,56,11,14
 2005/01/07,14:15,15,57,10.9,14.1
 2005/01/07,14:30,14.8,58,10.9,14.1
 2005/01/07,14:45,14.7,57,11,14.1
 2005/01/07,15:00,14.6,57,10.8,14.2
 2005/01/07,15:15,14.6,57,10.8,14.2
 2005/01/07,15:30,14.4,57,10.7,14.2
 2005/01/07,15:45,14.3,57,10.7,14.2
 2005/01/07,16:00,14.2,57,10.7,14.3
 2005/01/07,16:15,14.1,56,10.7,14.3
 2005/01/07,16:30,14,56,10.6,14.3
 2005/01/07,16:45,13.8,55,10.6,14.3
 2005/01/07,17:00,13.8,54,10.6,14.3
 2005/01/07,17:15,14.1,55,10.5,14.3
 2005/01/07,17:30,14.7,56,10.5,14.4
 2005/01/07,17:45,15,57,10.5,14.4
 2005/01/07,18:00,15.4,57,10.5,14.4
 2005/01/07,18:15,15.7,57,10.5,14.4
 2005/01/07,18:30,16,56,10.5,14.4
 2005/01/07,18:45,16,58,10.5,14.5
 2005/01/07,19:00,16.1,58,10.5,14.4
 2005/01/07,19:15,16.2,57,10.7,13.8
 2005/01/07,19:30,16.4,55,10.9,13.9
 2005/01/07,19:45,16.2,51,10.9,13.9
 2005/01/07,20:00,16,49,10.9,13.9
 2005/01/07,20:15,16,50,10.8,14
 2005/01/07,20:30,16.1,52,10.7,13.5
 2005/01/07,20:45,16.2,53,10.7,13.6
 2005/01/07,21:00,16.2,53,10.7,13.7